DW3733 Luzzi (cosenza) IT current weather conditions

sailwx.info

Wind from 220 at 0 knots gusting 1

Air temperature 12.2° C
Dewpoint 11.1° C

Last reported at 2014-Oct-22 21:13 UTC.
Time now 2014-Oct-23 00:55 UTC

Location: N 39°27' E 016°16'.
View on Google Maps.

See reports from other nearby stations

  
Tides and Currents Weather Stations Pressure Air Temp Water Temp Dewpoint Dewpoint Depression Visibility Wind Speed Wind Dir Waves Ship Positions
date/time (UTC)wind fromknots sea level pressurealtimeterstation pressurevisibilityair tempwater tempwave heightnotes
2014-Oct-22 21:13 220 0 gusting 1 12.2
2014-Oct-22 21:03 225 0 gusting 1 12.2
2014-Oct-22 20:53 144 0 gusting 1 12.2
2014-Oct-22 20:43 225 0 gusting 2 12.2
2014-Oct-22 20:33 135 12.8
2014-Oct-22 20:23 340 0 gusting 1 12.8
2014-Oct-22 20:13 146 12.8
2014-Oct-22 20:03 13.3
2014-Oct-22 19:53 323 1 gusting 4 13.3
2014-Oct-22 19:43 296 13.3
2014-Oct-22 19:33 143 1 gusting 5 13.9
2014-Oct-22 19:23 180 2 gusting 4 13.9
2014-Oct-22 19:13 157 0 gusting 4 13.9
2014-Oct-22 19:03 277 2 gusting 6 13.9
2014-Oct-22 18:53 225 1 gusting 5 13.9
2014-Oct-22 18:43 347 0 gusting 5 14.4
2014-Oct-22 18:33 180 1 gusting 5 15.0
2014-Oct-22 18:23 152 0 gusting 5 15.0
2014-Oct-22 18:13 207 0 gusting 4 15.6
2014-Oct-22 18:03 16.1
2014-Oct-22 17:53 114 1 gusting 2 16.7
2014-Oct-22 17:43 062 0 gusting 5 16.7
2014-Oct-22 17:33 073 4 gusting 10 16.7
2014-Oct-22 17:23 100 3 gusting 13 16.7
2014-Oct-22 17:13 165 6 gusting 13 16.7
2014-Oct-22 17:03 17.8
2014-Oct-22 16:53 041 1 gusting 6 18.3
2014-Oct-22 16:43 240 1 gusting 6 18.9
2014-Oct-22 16:33 295 2 gusting 6 20.0
2014-Oct-22 16:23 180 3 gusting 6 20.0
2014-Oct-22 16:13 225 2 gusting 6 20.0
2014-Oct-22 16:03 225 2 gusting 8 20.0
2014-Oct-22 15:53 180 2 gusting 6 20.0
2014-Oct-22 15:43 168 3 gusting 6 20.0
2014-Oct-22 15:33 225 1 gusting 6 20.0
2014-Oct-22 15:23 184 1 gusting 6 20.0
2014-Oct-22 15:13 136 2 gusting 6 20.0
2014-Oct-22 15:03 100 1 gusting 6 20.0
2014-Oct-22 14:53 137 0 gusting 4 20.0
2014-Oct-22 14:43 135 1 gusting 6 20.0
2014-Oct-22 14:33 109 1 gusting 6 19.4
2014-Oct-22 14:23 160 1 gusting 5 19.4
2014-Oct-22 14:13 239 1 gusting 2 19.4
2014-Oct-22 14:03 143 0 gusting 4 19.4
2014-Oct-22 13:53 178 1 gusting 4 19.4
2014-Oct-22 13:43 148 2 gusting 6 18.9
2014-Oct-22 13:33 135 1 gusting 5 18.3
2014-Oct-22 13:23 352 0 gusting 5 18.3
2014-Oct-22 13:13 122 3 gusting 6 18.3
2014-Oct-22 13:03 089 2 gusting 4 18.9
2014-Oct-22 12:53 090 0 gusting 4 19.4
2014-Oct-22 12:43 192 1 gusting 2 20.0
2014-Oct-22 12:33 315 21.1
2014-Oct-22 12:23 348 0 gusting 6 22.2
2014-Oct-22 12:13 247 0 gusting 5 22.2
2014-Oct-22 12:03 163 1 gusting 6 22.8
2014-Oct-22 11:53 188 1 gusting 6 23.3
2014-Oct-22 11:43 254 4 gusting 11 23.3
2014-Oct-22 11:33 180 3 gusting 8 22.8
2014-Oct-22 11:23 206 2 gusting 6 22.8
2014-Oct-22 11:13 135 1 gusting 6 22.8
2014-Oct-22 11:03 211 4 gusting 6 22.8
2014-Oct-22 10:53 042 2 gusting 10 22.2
2014-Oct-22 10:43 303 2 gusting 5 21.7
2014-Oct-22 10:33 180 1 gusting 8 21.1
2014-Oct-22 10:23 220 1 gusting 5 20.6
2014-Oct-22 10:13 194 0 gusting 4 20.6
2014-Oct-22 10:03 21.7
2014-Oct-22 09:53 141 2 gusting 6 23.3
2014-Oct-22 09:43 214 0 gusting 5 23.9
2014-Oct-22 09:33 23.9
2014-Oct-22 09:23 288 1 gusting 11 23.9
2014-Oct-22 09:13 164 6 gusting 11 23.9
2014-Oct-22 09:03 215 2 gusting 8 23.9
2014-Oct-22 08:53 206 3 gusting 10 23.9
2014-Oct-22 08:43 261 4 gusting 8 22.8
2014-Oct-22 08:33 315 2 gusting 14 21.7
2014-Oct-22 08:23 266 6 gusting 14 21.7
2014-Oct-22 08:13 168 6 gusting 13 22.8
2014-Oct-22 08:03 180 5 gusting 17 23.3
2014-Oct-22 07:53 250 6 gusting 13 23.9
2014-Oct-22 07:43 240 6 gusting 13 23.9
2014-Oct-22 07:33 217 6 gusting 14 23.9
2014-Oct-22 07:23 256 6 gusting 15 23.3
2014-Oct-22 07:13 211 5 gusting 11 23.3
2014-Oct-22 07:03 132 4 gusting 12 22.8
2014-Oct-22 06:53 22.2
2014-Oct-22 06:43 180 3 gusting 8 21.7
2014-Oct-22 06:33 183 4 gusting 10 21.7
2014-Oct-22 06:23 070 4 gusting 12 21.7
2014-Oct-22 06:13 222 2 gusting 10 21.1
2014-Oct-22 06:03 202 2 gusting 6 21.1
2014-Oct-22 05:53 135 3 gusting 12 20.6
2014-Oct-22 05:43 153 4 gusting 7 20.6
2014-Oct-22 05:33 224 3 gusting 6 20.6
2014-Oct-21 20:53 180 3 gusting 6 18.9
2014-Oct-21 20:33 090 0 gusting 5 18.9
2014-Oct-21 20:23 225 1 gusting 4 18.9
2014-Oct-21 20:13 232 1 gusting 6 18.9
2014-Oct-21 20:03 270 0 gusting 4 18.3
2014-Oct-21 19:53 135 1 gusting 4 18.3
2014-Oct-21 19:43 284 1 gusting 2 18.9
2014-Oct-21 19:33 186 0 gusting 4 18.9
2014-Oct-21 19:23 268 0 gusting 2 18.9
2014-Oct-21 19:13 219 0 gusting 4 19.4
2014-Oct-21 19:03 207 2 gusting 6 18.9
2014-Oct-21 18:53 135 0 gusting 2 19.4
2014-Oct-21 18:43 230 1 gusting 4 19.4
2014-Oct-21 18:33 219 1 gusting 2 19.4
2014-Oct-21 18:23 269 19.4
2014-Oct-21 18:13 278 2 gusting 5 20.0
2014-Oct-21 18:03 270 0 gusting 2 20.0
2014-Oct-21 17:53 155 0 gusting 2 20.0
2014-Oct-21 17:43 220 0 gusting 2 20.6
2014-Oct-21 17:33 227 0 gusting 2 20.6
2014-Oct-21 17:23 212 21.1
2014-Oct-21 17:13 135 2 gusting 5 21.1
2014-Oct-21 17:03 135 1 gusting 6 21.1
2014-Oct-21 16:53 064 2 gusting 5 20.6
2014-Oct-21 16:43 101 0 gusting 4 20.6
2014-Oct-21 16:33 058 2 gusting 4 21.1
2014-Oct-21 16:23 101 1 gusting 2 22.2
2014-Oct-21 16:13 270 0 gusting 5 22.2
2014-Oct-21 16:03 225 4 gusting 5 22.8
2014-Oct-21 15:53 233 2 gusting 6 22.8
2014-Oct-21 15:43 214 2 gusting 6 23.3
2014-Oct-21 15:33 290 1 gusting 6 23.3
2014-Oct-21 15:23 305 1 gusting 6 23.9
2014-Oct-21 15:13 194 0 gusting 5 23.9
2014-Oct-21 15:03 209 2 gusting 6 24.4
2014-Oct-21 14:53 225 3 gusting 6 25.0
2014-Oct-21 14:33 185 5 gusting 7 25.0
2014-Oct-21 14:23 159 0 gusting 6 25.0
2014-Oct-21 14:13 339 1 gusting 6 25.0
2014-Oct-21 14:03 171 2 gusting 6 25.6
2014-Oct-21 13:53 311 1 gusting 6 26.1
2014-Oct-21 13:33 195 1 gusting 6 26.1
2014-Oct-21 13:23 315 1 gusting 6 26.1
2014-Oct-21 13:13 268 1 gusting 6 25.6
2014-Oct-21 13:03 045 0 gusting 6 25.6
2014-Oct-21 12:53 181 1 gusting 8 25.6
2014-Oct-21 12:43 178 4 gusting 10 26.1
2014-Oct-21 12:33 264 2 gusting 7 26.1
2014-Oct-21 12:23 145 3 gusting 10 26.1
2014-Oct-21 12:13 129 1 gusting 6 26.1
2014-Oct-21 12:03 145 2 gusting 10 26.1
2014-Oct-21 11:53 186 2 gusting 7 26.1
2014-Oct-21 11:43 240 1 gusting 7 26.7
2014-Oct-21 11:33 296 1 gusting 6 26.7
2014-Oct-21 11:23 311 2 gusting 6 26.7
2014-Oct-21 11:13 197 5 gusting 10 26.1
2014-Oct-21 11:03 225 3 gusting 8 25.6
2014-Oct-21 10:53 225 1 gusting 6 25.6
2014-Oct-21 10:43 206 2 gusting 8 26.1
2014-Oct-21 10:33 309 0 gusting 7 25.6
2014-Oct-21 10:23 336 1 gusting 6 25.0
2014-Oct-21 10:13 315 2 gusting 6 25.6
2014-Oct-21 10:03 202 4 gusting 8 26.1
2014-Oct-21 09:53 180 1 gusting 6 25.0
2014-Oct-21 09:43 211 4 gusting 8 25.0
2014-Oct-21 09:33 225 3 gusting 8 25.6
2014-Oct-21 09:23 138 3 gusting 8 25.6
2014-Oct-21 09:13 216 3 gusting 6 25.0
2014-Oct-21 09:03 151 2 gusting 6 25.0
2014-Oct-21 08:53 188 2 gusting 6 25.0
2014-Oct-21 08:43 180 5 gusting 8 24.4
2014-Oct-21 08:33 157 4 gusting 6 23.9
2014-Oct-21 08:23 225 3 gusting 8 23.9
2014-Oct-21 08:13 180 5 gusting 8 23.3
2014-Oct-21 08:03 196 2 gusting 8 23.3
2014-Oct-21 07:53 165 2 gusting 8 22.8
2014-Oct-21 07:43 107 3 gusting 6 21.7
2014-Oct-21 07:33 227 1 gusting 4 21.1
2014-Oct-21 07:23 219 0 gusting 2 20.6
2014-Oct-21 07:13 069 0 gusting 2 20.0
2014-Oct-21 07:03 184 19.4
2014-Oct-21 06:53 180 0 gusting 2 18.3
2014-Oct-21 06:43 147 1 gusting 4 18.3
2014-Oct-21 06:33 161 0 gusting 4 17.8
2014-Oct-21 06:23 162 0 gusting 4 16.7
2014-Oct-21 06:13 181 1 gusting 2 16.1
2014-Oct-21 06:03 090 15.6
2014-Oct-21 05:53 344 15.0
2014-Oct-21 05:43 087 1 gusting 2 15.0
2014-Oct-21 05:33 315 16.7